• In Italy
  • List of Countries
  • For 7 days
  • Water Temperature
  • Satellite Maps
  • Weather Map
  • Weather Widgets
  • user-avatar
    Login

    Hourly Weather Eisenstadt

    Today, 20 October, Saturday

    Time Temperature Precipitation Wind Pressure Humidity
    00:00 +9°C° 0 mm 2 mps 727 mmHg 83%
    01:00 +9°C° 0 mm 2 mps 727 mmHg 87%
    02:00 +9°C° 0 mm 2 mps 727 mmHg 88%
    03:00 +9°C° 0 mm 2 mps 727 mmHg 89%
    04:00 +8°C° 0 mm 2 mps 727 mmHg 90%
    05:00 +8°C° 0 mm 2 mps 727 mmHg 90%
    06:00 +8°C° 0 mm 2 mps 728 mmHg 89%
    07:00 +8°C° 0 mm 2 mps 728 mmHg 86%
    08:00 +10°C° 0 mm 2 mps 728 mmHg 78%
    09:00 +12°C° 0 mm 3 mps 729 mmHg 69%
    10:00 +16°C° 0 mm 3 mps 729 mmHg 60%
    11:00 +16°C° 0 mm 3 mps 729 mmHg 57%
    12:00 +17°C° 0 mm 3 mps 729 mmHg 54%
    13:00 +18°C° 0 mm 4 mps 728 mmHg 51%
    14:00 +17°C° 0 mm 3 mps 728 mmHg 53%
    15:00 +17°C° 0 mm 3 mps 728 mmHg 56%
    16:00 +16°C° 0 mm 3 mps 728 mmHg 59%
    17:00 +14°C° 0 mm 3 mps 728 mmHg 64%
    18:00 +13°C° 0 mm 3 mps 728 mmHg 70%
    19:00 +11°C° 0 mm 3 mps 728 mmHg 76%
    20:00 +11°C° 0 mm 3 mps 728 mmHg 74%
    21:00 +11°C° 0 mm 3 mps 728 mmHg 72%
    22:00 +11°C° 0 mm 4 mps 728 mmHg 70%
    23:00 +10°C° 0.1 mm 4 mps 728 mmHg 70%

    Tomorrow, 21 October, Sunday

    Time Temperature Precipitation Wind Pressure Humidity
    00:00 +8°C° 0.1 mm 4 mps 728 mmHg 71%
    01:00 +8°C° 0.1 mm 4 mps 728 mmHg 71%
    02:00 +7°C° 0 mm 4 mps 728 mmHg 72%
    03:00 +6°C° 0 mm 4 mps 728 mmHg 73%
    04:00 +5°C° 0 mm 4 mps 728 mmHg 74%
    05:00 +5°C° 0 mm 4 mps 728 mmHg 74%
    06:00 +5°C° 0 mm 4 mps 728 mmHg 74%
    07:00 +4°C° 0 mm 4 mps 728 mmHg 74%
    08:00 +5°C° 0.3 mm 4 mps 728 mmHg 72%
    09:00 +6°C° 0.3 mm 5 mps 728 mmHg 70%
    10:00 +7°C° 0.3 mm 5 mps 728 mmHg 68%
    11:00 +8°C° 0.1 mm 5 mps 728 mmHg 64%
    12:00 +9°C° 0.1 mm 6 mps 728 mmHg 60%
    13:00 +10°C° 0.1 mm 6 mps 728 mmHg 56%
    14:00 +9°C° 0 mm 5 mps 728 mmHg 57%
    15:00 +9°C° 0 mm 5 mps 728 mmHg 59%
    16:00 +9°C° 0 mm 5 mps 728 mmHg 60%
    17:00 +8°C° 0 mm 5 mps 728 mmHg 63%
    18:00 +8°C° 0 mm 4 mps 728 mmHg 67%
    19:00 +7°C° 0 mm 4 mps 728 mmHg 70%
    20:00 +7°C° 0 mm 4 mps 729 mmHg 71%
    21:00 +7°C° 0 mm 4 mps 729 mmHg 73%
    22:00 +8°C° 0 mm 3 mps 729 mmHg 75%
    23:00 +8°C° 0 mm 3 mps 729 mmHg 76%

    Day after tomorrow, 22 October, Monday

    Time Temperature Precipitation Wind Pressure Humidity
    00:00 +7°C° 0 mm 3 mps 729 mmHg 77%
    01:00 +7°C° 0 mm 3 mps 729 mmHg 79%
    02:00 +7°C° 0 mm 3 mps 728 mmHg 80%
    03:00 +5°C° 0 mm 3 mps 728 mmHg 81%
    04:00 +5°C° 0 mm 3 mps 728 mmHg 82%
    05:00 +5°C° 0 mm 3 mps 728 mmHg 83%
    06:00 +6°C° 0 mm 2 mps 728 mmHg 83%
    07:00 +5°C° 0 mm 2 mps 728 mmHg 84%
    08:00 +7°C° 0 mm 2 mps 728 mmHg 77%
    09:00 +9°C° 0 mm 2 mps 728 mmHg 69%
    10:00 +12°C° 0 mm 2 mps 728 mmHg 61%
    11:00 +12°C° 0 mm 3 mps 728 mmHg 58%
    12:00 +13°C° 0 mm 3 mps 728 mmHg 56%
    13:00 +14°C° 0 mm 3 mps 727 mmHg 53%
    14:00 +13°C° 0 mm 3 mps 727 mmHg 54%
    15:00 +13°C° 0 mm 3 mps 727 mmHg 56%
    16:00 +12°C° 0 mm 3 mps 727 mmHg 58%
    17:00 +12°C° 0 mm 2 mps 727 mmHg 63%
    18:00 +10°C° 0 mm 2 mps 727 mmHg 67%
    19:00 +8°C° 0 mm 2 mps 728 mmHg 72%
    20:00 +8°C° 0 mm 2 mps 728 mmHg 72%
    21:00 +8°C° 0 mm 3 mps 728 mmHg 73%
    22:00 +7°C° 0 mm 3 mps 728 mmHg 73%
    23:00 +7°C° 0 mm 3 mps 728 mmHg 74%

    23 October, Tuesday

    Time Temperature Precipitation Wind Pressure Humidity
    00:00 +7°C° 0 mm 3 mps 728 mmHg 75%
    01:00 +7°C° 0 mm 3 mps 728 mmHg 75%
    02:00 +7°C° 0 mm 3 mps 728 mmHg 76%
    03:00 +6°C° 0 mm 4 mps 728 mmHg 76%
    04:00 +6°C° 0 mm 4 mps 728 mmHg 77%
    05:00 +6°C° 0.1 mm 4 mps 728 mmHg 79%
    06:00 +6°C° 0.1 mm 4 mps 728 mmHg 81%
    07:00 +6°C° 0.1 mm 4 mps 728 mmHg 82%
    08:00 +7°C° 0 mm 4 mps 728 mmHg 76%
    09:00 +8°C° 0 mm 4 mps 728 mmHg 69%
    10:00 +9°C° 0 mm 5 mps 728 mmHg 62%
    11:00 +10°C° 0 mm 5 mps 728 mmHg 60%
    12:00 +10°C° 0 mm 5 mps 727 mmHg 57%
    13:00 +12°C° 0 mm 5 mps 727 mmHg 54%
    14:00 +12°C° 0 mm 5 mps 727 mmHg 54%
    15:00 +11°C° 0 mm 4 mps 726 mmHg 55%
    16:00 +11°C° 0 mm 4 mps 726 mmHg 56%
    17:00 +10°C° 0 mm 4 mps 725 mmHg 59%
    18:00 +9°C° 0 mm 3 mps 725 mmHg 63%
    19:00 +9°C° 0 mm 3 mps 725 mmHg 67%
    20:00 +8°C° 0 mm 3 mps 725 mmHg 68%
    21:00 +7°C° 0 mm 4 mps 724 mmHg 70%
    22:00 +7°C° 0 mm 4 mps 724 mmHg 71%
    23:00 +7°C° 0.1 mm 4 mps 723 mmHg 73%

    24 October, Wednesday

    Time Temperature Precipitation Wind Pressure Humidity
    00:00 +7°C° 0.1 mm 4 mps 723 mmHg 74%
    01:00 +7°C° 0.1 mm 5 mps 722 mmHg 76%
    02:00 +7°C° 0.1 mm 5 mps 721 mmHg 75%
    03:00 +7°C° 0.1 mm 5 mps 721 mmHg 74%
    04:00 +8°C° 0.1 mm 5 mps 720 mmHg 74%
    05:00 +8°C° 0 mm 6 mps 720 mmHg 72%
    06:00 +8°C° 0 mm 6 mps 720 mmHg 71%
    07:00 +8°C° 0 mm 6 mps 719 mmHg 70%
    08:00 +10°C° 0.1 mm 7 mps 719 mmHg 66%
    09:00 +11°C° 0.1 mm 8 mps 719 mmHg 63%
    10:00 +13°C° 0.1 mm 10 mps 719 mmHg 60%
    11:00 +12°C° 0.5 mm 9 mps 719 mmHg 62%
    12:00 +12°C° 0.5 mm 9 mps 719 mmHg 64%
    13:00 +12°C° 0.5 mm 9 mps 719 mmHg 65%
    14:00 +12°C° 0.7 mm 8 mps 720 mmHg 68%
    15:00 +12°C° 0.7 mm 7 mps 720 mmHg 71%
    16:00 +11°C° 0.7 mm 6 mps 720 mmHg 74%
    17:00 +11°C° 0.6 mm 6 mps 720 mmHg 76%
    18:00 +10°C° 0.6 mm 6 mps 721 mmHg 78%
    19:00 +10°C° 0.6 mm 5 mps 721 mmHg 81%
    20:00 +10°C° 0.5 mm 5 mps 721 mmHg 81%
    21:00 +10°C° 0.5 mm 5 mps 722 mmHg 82%
    22:00 +10°C° 0.5 mm 4 mps 722 mmHg 82%
    23:00 +10°C° 0.7 mm 4 mps 722 mmHg 83%

    25 October, Thursday

    Time Temperature Precipitation Wind Pressure Humidity
    00:00 +10°C° 0.7 mm 4 mps 722 mmHg 84%
    01:00 +10°C° 0.7 mm 4 mps 723 mmHg 85%
    02:00 +10°C° 0.5 mm 4 mps 723 mmHg 85%
    03:00 +10°C° 0.5 mm 4 mps 723 mmHg 86%
    04:00 +10°C° 0.5 mm 3 mps 723 mmHg 87%
    05:00 +10°C° 0.1 mm 3 mps 723 mmHg 87%
    06:00 +9°C° 0.1 mm 3 mps 723 mmHg 88%
    07:00 +9°C° 0.1 mm 3 mps 723 mmHg 88%
    08:00 +11°C° 0 mm 4 mps 724 mmHg 82%
    09:00 +12°C° 0 mm 4 mps 724 mmHg 75%
    10:00 +14°C° 0 mm 5 mps 724 mmHg 69%
    11:00 +14°C° 0.1 mm 5 mps 723 mmHg 67%
    12:00 +14°C° 0.1 mm 5 mps 723 mmHg 66%
    13:00 +14°C° 0.1 mm 5 mps 723 mmHg 65%
    14:00 +14°C° 0 mm 4 mps 723 mmHg 65%
    15:00 +14°C° 0 mm 4 mps 722 mmHg 65%
    16:00 +14°C° 0 mm 3 mps 722 mmHg 66%
    17:00 +13°C° 0 mm 3 mps 722 mmHg 70%
    18:00 +12°C° 0 mm 3 mps 722 mmHg 75%
    19:00 +10°C° 0 mm 2 mps 722 mmHg 80%
    20:00 +10°C° 0 mm 2 mps 722 mmHg 82%
    21:00 +10°C° 0 mm 2 mps 722 mmHg 84%
    22:00 +9°C° 0 mm 2 mps 723 mmHg 86%
    23:00 +9°C° 0 mm 2 mps 722 mmHg 87%
    Show more